ITY413 EDDF-LIML

Flight info

Callsign ITY413
Flight time N/A
Altitude 31000
Route ANEKI2L/18 ANEKI Y163 NATOR DCT TRA DCT RIPUS DCT GERSA DCT SOSON DCT ODINA
Aircraft A20N/M-SDE2E3FGHIRWXY/LB1

Departure

Time 2026-05-05 17:49
Airport Frankfurt Main Airport (EDDF)

Arrival

Time N/A
Airport Milano Linate Airport (LIML)
Time Latitude Longitude Altitude Speed Heading
2026-05-05 17:20 50.04655 8.56808 359 ft 0 kts 294°
2026-05-05 17:37 50.04654 8.56812 353 ft 3 kts 294°
2026-05-05 17:37 50.04643 8.56850 359 ft 4 kts 288°
2026-05-05 17:38 50.04638 8.56890 352 ft 4 kts 267°
2026-05-05 17:38 50.04645 8.56926 361 ft 4 kts 220°
2026-05-05 17:38 50.04652 8.56935 362 ft 0 kts 203°
2026-05-05 17:40 50.04649 8.56933 361 ft 2 kts 203°
2026-05-05 17:40 50.04627 8.56920 359 ft 5 kts 197°
2026-05-05 17:40 50.04604 8.56911 351 ft 2 kts 194°
2026-05-05 17:40 50.04565 8.56897 350 ft 9 kts 193°
2026-05-05 17:41 50.04501 8.56873 348 ft 8 kts 195°
2026-05-05 17:41 50.04461 8.56837 353 ft 7 kts 226°
2026-05-05 17:41 50.04435 8.56757 357 ft 9 kts 248°
2026-05-05 17:41 50.04408 8.56649 358 ft 13 kts 249°
2026-05-05 17:42 50.04371 8.56499 352 ft 16 kts 249°
2026-05-05 17:42 50.04336 8.56350 354 ft 14 kts 250°
2026-05-05 17:42 50.04305 8.56213 353 ft 13 kts 250°
2026-05-05 17:42 50.04275 8.56087 355 ft 11 kts 250°
2026-05-05 17:43 50.04251 8.55982 359 ft 10 kts 249°
2026-05-05 17:43 50.04223 8.55867 360 ft 13 kts 249°
2026-05-05 17:43 50.04188 8.55726 358 ft 14 kts 249°
2026-05-05 17:43 50.04157 8.55595 361 ft 12 kts 249°
2026-05-05 17:44 50.04122 8.55451 363 ft 16 kts 249°
2026-05-05 17:44 50.04082 8.55283 360 ft 18 kts 250°
2026-05-05 17:44 50.04033 8.55079 361 ft 22 kts 249°
2026-05-05 17:44 50.03977 8.54845 365 ft 23 kts 250°
2026-05-05 17:45 50.03923 8.54614 364 ft 22 kts 250°
2026-05-05 17:45 50.03873 8.54408 362 ft 20 kts 244°
2026-05-05 17:45 50.03805 8.54237 363 ft 17 kts 243°
2026-05-05 17:45 50.03762 8.54060 366 ft 19 kts 250°
2026-05-05 17:46 50.03707 8.53830 366 ft 25 kts 249°
2026-05-05 17:46 50.03644 8.53577 364 ft 24 kts 249°
2026-05-05 17:46 50.03588 8.53345 363 ft 22 kts 250°
2026-05-05 17:46 50.03537 8.53133 366 ft 20 kts 250°
2026-05-05 17:47 50.03493 8.52949 369 ft 15 kts 248°
2026-05-05 17:47 50.03461 8.52827 376 ft 10 kts 247°
2026-05-05 17:47 50.03435 8.52730 379 ft 12 kts 248°
2026-05-05 17:47 50.03376 8.52606 378 ft 12 kts 207°
2026-05-05 17:48 50.03341 8.52595 376 ft 0 kts 181°
2026-05-05 17:48 50.03336 8.52595 376 ft 5 kts 181°
2026-05-05 17:49 50.03056 8.52595 366 ft 80 kts 180°
2026-05-05 17:49 50.02274 8.52603 367 ft 141 kts 180°
2026-05-05 17:49 50.01170 8.52592 734 ft 162 kts 182°
2026-05-05 17:49 50.00059 8.52578 1535 ft 162 kts 180°
2026-05-05 17:50 49.98886 8.52650 2060 ft 179 kts 180°
2026-05-05 17:50 49.97567 8.52752 2431 ft 201 kts 179°
2026-05-05 17:50 49.96097 8.52866 2826 ft 220 kts 179°
2026-05-05 17:50 49.94522 8.52991 3529 ft 229 kts 179°
2026-05-05 17:51 49.92911 8.53117 3913 ft 231 kts 179°
2026-05-05 17:51 49.91312 8.53240 3984 ft 229 kts 179°
2026-05-05 17:51 49.89680 8.53361 4325 ft 242 kts 179°
2026-05-05 17:51 49.88011 8.53478 5431 ft 235 kts 179°
2026-05-05 17:52 49.86387 8.53592 6497 ft 234 kts 180°
2026-05-05 17:52 49.84749 8.53703 7397 ft 237 kts 180°
2026-05-05 17:52 49.83090 8.53815 8306 ft 239 kts 180°
2026-05-05 17:52 49.81415 8.53927 9234 ft 242 kts 180°
2026-05-05 17:53 49.79720 8.54042 10127 ft 245 kts 180°
2026-05-05 17:53 49.78002 8.54121 10951 ft 248 kts 186°
2026-05-05 17:53 49.76239 8.53929 11387 ft 269 kts 186°
2026-05-05 17:53 49.74284 8.53791 11727 ft 293 kts 185°
2026-05-05 17:54 49.72157 8.53688 12024 ft 318 kts 184°
2026-05-05 17:54 49.69868 8.53592 12282 ft 341 kts 184°
2026-05-05 17:54 49.67429 8.53490 12683 ft 356 kts 184°
2026-05-05 17:54 49.64929 8.53381 13381 ft 362 kts 184°
2026-05-05 17:55 49.62393 8.53266 14083 ft 366 kts 184°
2026-05-05 17:55 49.59830 8.53147 14777 ft 370 kts 184°
2026-05-05 17:55 49.57247 8.53017 15472 ft 373 kts 184°
2026-05-05 17:55 49.54643 8.52884 16156 ft 376 kts 183°
2026-05-05 17:56 49.52015 8.52749 16829 ft 379 kts 183°
2026-05-05 17:56 49.49369 8.52613 17486 ft 382 kts 183°
2026-05-05 17:56 49.46702 8.52479 18127 ft 385 kts 183°
2026-05-05 17:56 49.44013 8.52342 18686 ft 388 kts 183°
2026-05-05 17:57 49.41300 8.52204 19234 ft 392 kts 183°
2026-05-05 17:57 49.38563 8.52062 19766 ft 395 kts 183°
2026-05-05 17:57 49.35805 8.51921 20296 ft 398 kts 182°
2026-05-05 17:57 49.33025 8.51779 20819 ft 401 kts 182°
2026-05-05 17:58 49.30218 8.51634 21331 ft 405 kts 182°
2026-05-05 17:58 49.27392 8.51490 21839 ft 408 kts 182°
2026-05-05 17:58 49.24546 8.51346 22339 ft 411 kts 182°
2026-05-05 17:58 49.21677 8.51203 22827 ft 414 kts 182°
2026-05-05 17:59 49.18784 8.51060 23321 ft 417 kts 182°
2026-05-05 17:59 49.15875 8.50911 23700 ft 419 kts 182°
2026-05-05 17:59 49.12960 8.50759 23804 ft 419 kts 182°
2026-05-05 17:59 49.10041 8.50608 23829 ft 419 kts 182°
2026-05-05 18:00 49.07127 8.50458 23827 ft 419 kts 182°
2026-05-05 18:00 49.04188 8.50311 23834 ft 419 kts 182°
2026-05-05 18:00 49.01300 8.50169 23831 ft 419 kts 182°
2026-05-05 18:00 48.98387 8.50021 23832 ft 419 kts 182°
2026-05-05 18:01 48.95484 8.49874 23829 ft 417 kts 182°
2026-05-05 18:01 48.92583 8.49729 23829 ft 417 kts 182°
2026-05-05 18:01 48.89666 8.49588 24120 ft 420 kts 182°
2026-05-05 18:01 48.86775 8.49449 24556 ft 422 kts 182°
2026-05-05 18:02 48.83824 8.49306 24974 ft 425 kts 182°
2026-05-05 18:02 48.80862 8.49160 25378 ft 427 kts 182°
2026-05-05 18:02 48.77889 8.49013 25771 ft 429 kts 182°
2026-05-05 18:02 48.74895 8.48863 26174 ft 431 kts 182°
2026-05-05 18:03 48.71891 8.48712 26573 ft 432 kts 182°
2026-05-05 18:03 48.68883 8.48557 26947 ft 434 kts 182°
2026-05-05 18:03 48.65854 8.48397 27315 ft 436 kts 182°
2026-05-05 18:03 48.62808 8.48237 27670 ft 438 kts 182°
2026-05-05 18:04 48.59754 8.48083 28007 ft 440 kts 182°
2026-05-05 18:04 48.56686 8.47932 28360 ft 442 kts 182°
2026-05-05 18:04 48.53603 8.47785 28689 ft 444 kts 182°
2026-05-05 18:04 48.50506 8.47637 29033 ft 446 kts 182°
2026-05-05 18:05 48.47412 8.47488 29506 ft 444 kts 182°
2026-05-05 18:05 48.44366 8.47340 29974 ft 443 kts 182°
2026-05-05 18:05 48.41255 8.47189 30383 ft 441 kts 182°
2026-05-05 18:05 48.38185 8.47038 30725 ft 441 kts 182°
2026-05-05 18:06 48.35128 8.46888 30827 ft 439 kts 182°
2026-05-05 18:06 48.29088 8.46603 30849 ft 435 kts 182°
2026-05-05 18:07 48.23004 8.46313 30852 ft 434 kts 182°
2026-05-05 18:07 48.17005 8.46019 30852 ft 434 kts 182°
2026-05-05 18:08 48.10967 8.45715 30861 ft 434 kts 182°
2026-05-05 18:08 48.04939 8.45419 30860 ft 433 kts 182°
2026-05-05 18:09 47.98919 8.45131 30858 ft 432 kts 182°
2026-05-05 18:09 47.92910 8.44839 30855 ft 432 kts 182°
2026-05-05 18:10 47.86904 8.44562 30865 ft 431 kts 183°
2026-05-05 18:10 47.80913 8.44278 30871 ft 431 kts 183°
2026-05-05 18:11 47.74927 8.43997 30856 ft 430 kts 184°
2026-05-05 18:11 47.68944 8.43772 30854 ft 431 kts 180°
2026-05-05 18:12 47.62992 8.44572 30867 ft 432 kts 177°
2026-05-05 18:12 47.57009 8.45456 30871 ft 432 kts 177°
2026-05-05 18:13 47.51034 8.46340 30870 ft 431 kts 177°
2026-05-05 18:13 47.45060 8.47220 30863 ft 432 kts 178°
2026-05-05 18:14 47.39075 8.48099 30865 ft 432 kts 178°
2026-05-05 18:14 47.33089 8.48974 30891 ft 433 kts 178°
2026-05-05 18:15 47.27101 8.49846 30889 ft 432 kts 178°
2026-05-05 18:15 47.21112 8.50718 30902 ft 432 kts 178°
2026-05-05 18:16 47.16140 8.51442 30905 ft 432 kts 178°
2026-05-05 18:16 47.10161 8.52308 30903 ft 432 kts 178°
2026-05-05 18:17 47.04181 8.53177 30904 ft 431 kts 178°
2026-05-05 18:17 46.98220 8.54039 30916 ft 431 kts 178°
2026-05-05 18:18 46.92266 8.54894 30914 ft 430 kts 178°
2026-05-05 18:18 46.86319 8.55751 30921 ft 429 kts 178°
2026-05-05 18:19 46.80383 8.56602 30940 ft 429 kts 179°
2026-05-05 18:19 46.74447 8.57446 30937 ft 427 kts 180°
2026-05-05 18:20 46.68537 8.58295 30954 ft 426 kts 180°
2026-05-05 18:20 46.62641 8.59146 30963 ft 425 kts 180°
2026-05-05 18:21 46.56815 8.59980 30997 ft 423 kts 180°
2026-05-05 18:21 46.50968 8.60809 30994 ft 421 kts 181°
2026-05-05 18:22 46.45153 8.61622 30992 ft 419 kts 181°
2026-05-05 18:22 46.39336 8.62431 30725 ft 420 kts 180°
2026-05-05 18:22 46.36424 8.62842 30484 ft 421 kts 180°
2026-05-05 18:23 46.33505 8.63257 30242 ft 422 kts 180°
2026-05-05 18:23 46.30581 8.63671 29992 ft 423 kts 180°
2026-05-05 18:23 46.27657 8.64082 29699 ft 423 kts 181°
2026-05-05 18:23 46.24715 8.64491 29400 ft 424 kts 180°
2026-05-05 18:24 46.21772 8.64901 28309 ft 426 kts 180°
2026-05-05 18:24 46.18852 8.65308 27113 ft 430 kts 180°
2026-05-05 18:24 46.15868 8.65728 25945 ft 432 kts 179°
2026-05-05 18:24 46.12869 8.66221 24822 ft 436 kts 175°
2026-05-05 18:25 46.09914 8.67314 23782 ft 442 kts 166°
2026-05-05 18:25 46.07988 8.68457 23063 ft 445 kts 159°
2026-05-05 18:25 46.04400 8.71258 21878 ft 440 kts 156°
2026-05-05 18:25 46.01728 8.73364 21019 ft 435 kts 156°
2026-05-05 18:26 45.99083 8.75432 20201 ft 431 kts 156°
2026-05-05 18:26 45.96467 8.77471 19753 ft 420 kts 156°
2026-05-05 18:26 45.93956 8.79428 19626 ft 401 kts 156°
2026-05-05 18:26 45.91556 8.81296 19500 ft 385 kts 156°
2026-05-05 18:27 45.89248 8.83091 19378 ft 369 kts 156°
2026-05-05 18:27 45.87029 8.84816 19249 ft 356 kts 156°
2026-05-05 18:27 45.84888 8.86479 19132 ft 344 kts 157°
2026-05-05 18:27 45.82824 8.88081 19010 ft 331 kts 157°
2026-05-05 18:28 45.78854 8.91154 18597 ft 321 kts 157°
2026-05-05 18:28 45.76872 8.92679 18093 ft 324 kts 157°
2026-05-05 18:28 45.74903 8.94197 17735 ft 320 kts 157°
2026-05-05 18:29 45.72947 8.95712 17296 ft 319 kts 156°
2026-05-05 18:29 45.70998 8.97219 16891 ft 318 kts 156°
2026-05-05 18:29 45.69056 8.98718 16482 ft 316 kts 156°
2026-05-05 18:29 45.67122 9.00208 16097 ft 315 kts 156°
2026-05-05 18:30 45.65193 9.01690 15721 ft 314 kts 156°
2026-05-05 18:30 45.63276 9.03162 15345 ft 312 kts 156°
2026-05-05 18:30 45.61385 9.04613 14983 ft 311 kts 156°
2026-05-05 18:30 45.59482 9.06077 14619 ft 310 kts 156°
2026-05-05 18:31 45.57584 9.07539 14269 ft 309 kts 156°
2026-05-05 18:31 45.55691 9.08993 13927 ft 308 kts 156°
2026-05-05 18:31 45.53826 9.10427 13762 ft 300 kts 156°
2026-05-05 18:31 45.52013 9.11816 13611 ft 291 kts 158°
2026-05-05 18:32 45.50151 9.12737 13442 ft 278 kts 173°
2026-05-05 18:32 45.48249 9.13017 13144 ft 273 kts 179°
2026-05-05 18:32 45.46355 9.13217 12839 ft 272 kts 179°
2026-05-05 18:32 45.44472 9.13427 12509 ft 271 kts 179°
2026-05-05 18:33 45.42599 9.13640 12208 ft 270 kts 179°
2026-05-05 18:33 45.40736 9.13851 11885 ft 268 kts 179°
2026-05-05 18:33 45.38876 9.14056 11564 ft 267 kts 178°
2026-05-05 18:33 45.37025 9.14259 11245 ft 266 kts 178°
2026-05-05 18:34 45.35183 9.14461 10927 ft 265 kts 178°
2026-05-05 18:34 45.33353 9.14667 10613 ft 260 kts 178°
2026-05-05 18:34 45.31565 9.14872 10116 ft 256 kts 178°
2026-05-05 18:34 45.29799 9.15072 9559 ft 254 kts 178°
2026-05-05 18:35 45.28069 9.15266 9047 ft 249 kts 178°
2026-05-05 18:35 45.26409 9.15472 8833 ft 233 kts 173°
2026-05-05 18:35 45.24888 9.16258 7928 ft 239 kts 148°
2026-05-05 18:35 45.23765 9.18043 6879 ft 251 kts 119°
2026-05-05 18:36 45.23356 9.20462 5902 ft 255 kts 97°
2026-05-05 18:36 45.23263 9.22976 4912 ft 257 kts 90°
2026-05-05 18:36 45.23675 9.25455 4216 ft 264 kts 66°
2026-05-05 18:36 45.24763 9.27576 3918 ft 266 kts 43°
2026-05-05 18:37 45.26243 9.28915 3676 ft 243 kts 21°
2026-05-05 18:37 45.27824 9.29429 3419 ft 226 kts
2026-05-05 18:37 45.29346 9.29334 3144 ft 214 kts 355°
2026-05-05 18:37 45.30779 9.29180 2883 ft 198 kts 356°
2026-05-05 18:38 45.32101 9.29039 2627 ft 182 kts 356°
2026-05-05 18:38 45.33316 9.28908 2382 ft 169 kts 357°
2026-05-05 18:38 45.34452 9.28787 2161 ft 159 kts 357°
2026-05-05 18:38 45.35503 9.28674 1959 ft 146 kts 358°
2026-05-05 18:39 45.36496 9.28568 1765 ft 141 kts 358°
2026-05-05 18:39 45.37471 9.28463 1575 ft 140 kts 359°
2026-05-05 18:39 45.38437 9.28360 1386 ft 139 kts 358°
2026-05-05 18:39 45.39399 9.28257 1187 ft 138 kts 359°
2026-05-05 18:40 45.40357 9.28156 1002 ft 137 kts 358°
2026-05-05 18:40 45.41297 9.28058 860 ft 136 kts 358°
2026-05-05 18:40 45.42242 9.27969 670 ft 136 kts 358°
2026-05-05 18:40 45.43190 9.27844 463 ft 134 kts 357°
2026-05-05 18:41 45.44082 9.27755 352 ft 118 kts 356°
2026-05-05 18:41 45.44719 9.27688 362 ft 71 kts 356°